1491098400.37,16386,13.25,73770.8,-2.65,-33.21,-33.49,0,*55
1491098401.62,16387,13.25,73768.5,-2.65,-33.27,-33.49,0,*52
1491098402.86,16388,13.25,73770.3,-2.65,-33.09,-33.37,0,*58
1491098404.06,16389,13.25,73770.0,-2.65,-32.91,-33.21,0,*5E
1491098405.29,16390,13.25,73766.8,-2.65,-32.91,-33.09,0,*5C
1491098406.53,16391,13.25,73764.0,-2.65,-32.85,-32.91,0,*58
1491098407.76,16392,13.25,73770.8,-2.65,-32.75,-32.91,0,*54
1491098409.0,16393,13.25,73764.5,-2.65,-32.85,-33.03,0,*50
1491098410.23,16394,13.25,73766.3,-2.65,-32.75,-32.91,0,*52
1491098411.52,16395,13.25,73768.3,-2.67,-33.09,-33.27,0,*57
1491098412.78,16396,13.25,73766.5,-2.65,-32.85,-32.85,0,*5A
1491098414.02,16397,13.25,73762.3,-2.65,-32.75,-33.03,0,*5B
1491098415.31,16398,13.25,73764.8,-2.63,-32.75,-32.85,0,*5D
1491098416.57,16399,13.25,73766.3,-2.65,-32.85,-33.09,0,*50
1491098417.83,16400,13.25,73762.0,-2.65,-32.85,-33.09,0,*57
1491098419.03,16401,13.25,73756.5,-2.65,-32.91,-33.21,0,*59
1491098420.23,16402,13.25,73754.5,-2.65,-32.91,-33.21,0,*5A
1491098421.47,16403,13.25,73762.3,-2.65,-32.91,-33.27,0,*5D
1491098422.67,16404,13.25,73758.8,-2.65,-33.03,-33.21,0,*56
1491098423.87,16405,13.25,73756.0,-2.65,-32.91,-33.03,0,*5D
1491098425.08,16406,13.25,73752.0,-2.65,-32.91,-33.21,0,*5E
1491098426.28,16407,13.25,73752.3,-2.65,-33.03,-33.21,0,*55
1491098427.52,16408,13.25,73752.5,-2.65,-32.75,-33.03,0,*5A
1491098428.75,16409,13.25,73752.5,-2.65,-32.85,-33.21,0,*54
1491098430.01,16410,13.25,73756.8,-2.65,-32.85,-33.09,0,*56
1491098431.24,16411,13.25,73756.5,-2.65,-32.85,-33.03,0,*5D
1491098432.48,16412,13.25,73758.0,-2.65,-32.85,-32.91,0,*54
1491098433.72,16413,13.25,73758.5,-2.65,-33.03,-33.27,0,*56
1491098434.98,16414,13.25,73760.5,-2.63,-33.03,-33.27,0,*57
1491098436.22,16415,13.25,73760.5,-2.63,-33.21,-33.37,0,*57
1491098437.5,16416,13.25,73762.3,-2.63,-33.27,-33.49,0,*5B
1491098438.76,16417,13.25,73764.0,-2.63,-33.21,-33.27,0,*54
1491098440.02,16418,13.25,73764.5,-2.63,-33.09,-33.21,0,*57
1491098441.26,16419,13.25,73758.5,-2.65,-32.69,-32.85,0,*58
1491098442.46,16420,13.25,73760.3,-2.65,-32.39,-32.57,0,*58
1491098443.7,16421,13.25,73756.8,-2.63,-32.51,-32.69,0,*5C
1491098444.94,16422,13.25,73754.0,-2.63,-32.39,-32.51,0,*5A
1491098446.21,16423,13.25,73750.5,-2.63,-32.51,-32.75,0,*53
1491098447.44,16424,13.25,73752.8,-2.63,-32.51,-32.57,0,*54
1491098448.66,16425,13.25,73752.5,-2.61,-32.35,-32.45,0,*56
1491098449.92,16426,13.25,73748.3,-2.61,-32.63,-32.79,0,*59
1491098451.16,16427,13.25,73754.0,-2.61,-32.79,-33.15,0,*58
1491098452.39,16428,13.25,73752.3,-2.61,-32.85,-33.15,0,*54
1491098453.62,16429,13.25,73754.0,-2.61,-32.91,-33.09,0,*5D
1491098454.91,16430,13.25,73756.5,-2.63,-32.85,-32.85,0,*57
1491098456.15,16431,13.25,73752.8,-2.61,-32.63,-32.69,0,*5E
1491098457.39,16432,13.25,73758.3,-2.61,-32.69,-32.85,0,*55
1491098458.63,16433,13.25,73758.3,-2.61,-32.69,-32.85,0,*54
1491098459.86,16434,13.25,73758.3,-2.61,-32.69,-32.97,0,*50
1491098461.12,16435,13.25,73758.0,-2.61,-32.79,-32.97,0,*50
1491098462.36,16436,13.25,73754.8,-2.61,-32.79,-33.03,0,*5F
1491098463.62,16437,13.25,73756.8,-2.59,-32.85,-33.21,0,*56
1491098464.87,16438,13.25,73758.5,-2.59,-32.85,-33.15,0,*5E
1491098466.16,16439,13.25,73754.3,-2.59,-32.97,-33.31,0,*5A
1491098467.39,16440,13.25,73756.0,-2.61,-32.85,-33.21,0,*5D
1491098468.62,16441,13.25,73760.8,-2.61,-32.97,-33.15,0,*58
1491098469.85,16442,13.25,73762.3,-2.61,-32.85,-33.15,0,*58
1491098471.11,16443,13.25,73760.5,-2.61,-32.97,-33.31,0,*5C
1491098472.34,16444,13.25,73756.0,-2.61,-32.85,-33.15,0,*5E
1491098473.57,16445,13.25,73752.8,-2.61,-32.69,-32.97,0,*56
1491098474.82,16446,13.25,73756.0,-2.61,-32.69,-32.85,0,*56
1491098476.07,16447,13.25,73756.3,-2.61,-32.45,-32.79,0,*5A
1491098477.29,16448,13.25,73758.8,-2.61,-32.51,-32.69,0,*51
1491098478.5,16449,13.25,73756.3,-2.61,-32.69,-33.03,0,*56
1491098479.76,16450,13.25,73766.0,-2.61,-32.63,-32.85,0,*5B
1491098481.02,16451,13.25,73764.5,-2.59,-32.79,-33.15,0,*52
1491098482.26,16452,13.25,73768.8,-2.59,-32.51,-32.69,0,*51
1491098483.52,16453,13.25,73768.3,-2.59,-32.85,-33.03,0,*54
1491098484.78,16454,13.25,73766.3,-2.59,-32.85,-33.03,0,*53
1491098486.01,16455,13.25,73772.3,-2.57,-33.09,-33.37,0,*5E
1491098487.27,16456,13.25,73770.0,-2.59,-33.31,-33.55,0,*5C
1491098488.53,16457,13.25,73766.3,-2.59,-32.85,-33.15,0,*57
1491098489.78,16458,13.25,73766.3,-2.59,-32.97,-33.21,0,*5C
1491098491.04,16459,13.25,73766.3,-2.59,-32.85,-33.21,0,*5E
1491098492.33,16460,13.25,73764.3,-2.59,-32.85,-33.31,0,*55
1491098493.59,16461,13.25,73764.8,-2.59,-33.15,-33.43,0,*59
1491098494.84,16462,13.25,73764.3,-2.59,-32.97,-33.21,0,*55
1491098496.1,16463,13.25,73764.5,-2.59,-32.85,-33.03,0,*57
1491098497.36,16464,13.25,73766.0,-2.59,-32.85,-33.15,0,*57
1491098498.63,16465,13.25,73770.0,-2.59,-32.69,-32.85,0,*5C
1491098499.91,16466,13.25,73766.0,-2.59,-32.79,-32.97,0,*5D
1491098501.17,16467,13.25,73770.8,-2.59,-32.85,-33.03,0,*53
1491098502.43,16468,13.25,73770.3,-2.59,-32.85,-33.21,0,*5C
1491098503.69,16469,13.25,73770.8,-2.59,-32.97,-33.21,0,*5E
1491098504.95,16470,13.25,73766.3,-2.59,-32.85,-33.15,0,*52
1491098506.21,16471,13.25,73764.0,-2.59,-32.69,-32.97,0,*5A
1491098507.45,16472,13.25,73762.8,-2.59,-32.51,-32.69,0,*53
1491098508.71,16473,13.25,73762.3,-2.59,-32.79,-33.21,0,*55
1491098509.96,16474,13.25,73764.5,-2.59,-33.15,-33.31,0,*58
1491098511.22,16475,13.25,73764.8,-2.59,-33.15,-33.43,0,*5C
1491098512.49,16476,13.25,73766.0,-2.59,-33.21,-33.43,0,*58
1491098513.72,16477,13.25,73766.5,-2.57,-33.27,-33.37,0,*52
1491098514.97,16478,13.25,73766.0,-2.57,-33.31,-33.49,0,*53
1491098516.23,16479,13.25,73766.3,-2.59,-33.37,-33.61,0,*50
1491098517.51,16480,13.25,73764.5,-2.59,-33.31,-33.61,0,*50
1491098518.76,16481,13.25,73766.0,-2.59,-33.31,-33.55,0,*56
1491098520.0,16482,13.25,73768.8,-2.61,-33.15,-33.43,0,*5F
1491098521.23,16483,13.25,73772.3,-2.61,-33.15,-33.31,0,*5B
1491098522.46,16484,13.25,73770.5,-2.63,-33.03,-33.21,0,*58
1491098523.75,16485,13.25,73766.0,-2.63,-33.09,-33.27,0,*55
1491098524.96,16486,13.25,73768.5,-2.61,-33.03,-33.15,0,*5F
1491098526.19,16487,13.25,73770.0,-2.61,-33.03,-33.31,0,*58
1491098527.43,16488,13.25,73768.0,-2.61,-33.21,-33.43,0,*52
1491098528.66,16489,13.25,73766.5,-2.61,-32.85,-33.03,0,*58
1491098529.89,16490,13.25,73768.0,-2.61,-32.85,-33.15,0,*57
1491098531.12,16491,13.25,73772.5,-2.61,-32.97,-33.21,0,*52
1491098532.33,16492,13.25,73768.8,-2.61,-33.03,-33.21,0,*5D
1491098533.56,16493,13.25,73774.3,-2.61,-33.15,-33.43,0,*5F
1491098534.77,16494,13.25,73772.8,-2.61,-33.21,-33.37,0,*5C
1491098536.01,16495,13.25,73772.5,-2.61,-33.15,-33.43,0,*59
1491098537.25,16496,13.25,73774.3,-2.61,-33.37,-33.43,0,*5A
1491098538.51,16497,13.25,73770.0,-2.61,-33.31,-33.43,0,*5D
1491098539.77,16498,13.25,73774.0,-2.61,-32.85,-32.85,0,*57
1491098541.04,16499,13.25,73770.5,-2.61,-32.79,-32.79,0,*56
1491098542.3,16500,13.25,73770.8,-2.61,-32.85,-32.85,0,*57
1491098543.55,16501,13.25,73766.0,-2.61,-32.97,-32.97,0,*56
1491098544.76,16502,13.25,73768.8,-2.61,-33.03,-33.03,0,*55
1491098545.96,16503,13.25,73768.3,-2.61,-33.15,-33.15,0,*54
1491098547.16,16504,13.25,73768.8,-2.61,-33.15,-33.15,0,*53
1491098548.39,16505,13.25,73764.0,-2.63,-32.91,-32.91,0,*50
1491098549.66,16506,13.25,73766.0,-2.63,-32.75,-32.69,0,*5E
1491098550.89,16507,13.25,73770.0,-2.61,-32.97,-33.03,0,*5C
1491098552.15,16508,13.25,73770.3,-2.61,-33.31,-33.31,0,*5F
1491098553.41,16509,13.25,73768.0,-2.61,-33.31,-33.31,0,*5E
1491098554.61,16510,13.25,73766.0,-2.61,-33.15,-33.21,0,*51
1491098555.82,16511,13.25,73768.0,-2.61,-33.03,-33.15,0,*50
1491098557.05,16512,13.25,73764.5,-2.63,-33.21,-33.03,0,*56
1491098558.31,16513,13.25,73766.8,-2.61,-32.85,-32.79,0,*56
1491098559.61,16514,13.25,73768.0,-2.63,-32.85,-32.75,0,*5F
1491098560.85,16515,13.25,73764.3,-2.61,-32.79,-32.69,0,*52
1491098562.13,16516,13.25,73768.5,-2.63,-33.09,-33.09,0,*52
1491098563.33,16517,13.25,73766.5,-2.61,-33.15,-33.21,0,*56
1491098564.6,16518,13.25,73768.5,-2.63,-33.21,-33.27,0,*5A
1491098565.89,16519,13.25,73764.0,-2.63,-33.49,-33.49,0,*5D
1491098567.15,16520,13.25,73766.5,-2.63,-33.43,-33.37,0,*54
1491098568.35,16521,13.25,73762.0,-2.61,-33.03,-33.03,0,*54
1491098569.58,16522,13.25,73764.8,-2.61,-32.97,-33.03,0,*5B
1491098570.79,16523,13.25,73762.8,-2.61,-33.03,-33.21,0,*56
1491098572.05,16524,13.25,73766.3,-2.63,-33.09,-33.21,0,*59
1491098573.28,16525,13.25,73762.5,-2.63,-32.91,-32.91,0,*52
1491098574.55,16526,13.25,73762.0,-2.63,-32.85,-32.91,0,*54
1491098575.79,16527,13.25,73766.5,-2.61,-32.69,-32.85,0,*50
1491098577.03,16528,13.25,73764.3,-2.61,-32.69,-32.79,0,*5C
1491098578.26,16529,13.25,73758.8,-2.63,-32.91,-32.91,0,*5E
1491098579.52,16530,13.25,73762.3,-2.61,-32.79,-32.85,0,*57
1491098580.79,16531,13.25,73762.0,-2.63,-32.75,-32.69,0,*5A
1491098582.05,16532,13.25,73762.0,-2.61,-32.45,-32.45,0,*56
1491098583.25,16533,13.25,73762.8,-2.61,-32.35,-32.35,0,*57
1491098584.49,16534,13.25,73762.3,-2.61,-32.63,-32.51,0,*51
1491098585.72,16535,13.25,73762.3,-2.61,-32.63,-32.51,0,*50
1491098586.96,16536,13.25,73766.0,-2.61,-32.45,-32.51,0,*57
1491098588.22,16537,13.25,73762.0,-2.59,-32.45,-32.51,0,*5D
1491098589.49,16538,13.25,73762.5,-2.59,-32.63,-32.51,0,*56
1491098590.73,16539,13.25,73762.3,-2.59,-32.69,-32.69,0,*56
1491098591.99,16540,13.25,73760.3,-2.59,-32.63,-32.69,0,*52
1491098593.28,16541,13.25,73762.5,-2.59,-32.79,-32.85,0,*5A
1491098594.55,16542,13.25,73760.8,-2.59,-32.69,-32.79,0,*5B
1491098595.83,16543,13.25,73766.5,-2.59,-32.79,-32.97,0,*5B
1491098597.09,16544,13.25,73770.8,-2.59,-32.85,-33.03,0,*53
1491098598.35,16545,13.25,73770.8,-2.59,-32.85,-33.21,0,*52
1491098599.61,16546,13.25,73772.8,-2.59,-32.97,-33.15,0,*55
1491098600.86,16547,13.25,73774.8,-2.59,-32.97,-33.21,0,*53
1491098602.12,16548,13.25,73776.3,-2.59,-32.97,-33.15,0,*5B
1491098603.32,16549,13.25,73774.8,-2.57,-33.03,-33.21,0,*5F
1491098604.6,16550,13.25,73774.5,-2.59,-32.85,-32.97,0,*5A
1491098605.83,16551,13.25,73772.3,-2.59,-33.15,-33.21,0,*5F
1491098607.09,16552,13.25,73774.0,-2.59,-33.03,-33.31,0,*5A
1491098608.32,16553,13.25,73770.3,-2.57,-33.27,-33.55,0,*51
1491098609.57,16554,13.25,73772.0,-2.59,-33.31,-33.55,0,*5F
1491098610.81,16555,13.25,73776.5,-2.57,-33.31,-33.37,0,*54
1491098612.04,16556,13.25,73778.3,-2.59,-33.15,-33.21,0,*58
1491098613.32,16557,13.25,73778.0,-2.59,-32.97,-33.09,0,*58
1491098614.6,16558,13.25,73774.5,-2.59,-32.85,-32.97,0,*52
1491098615.85,16559,13.25,73772.5,-2.59,-32.97,-33.15,0,*5B
1491098617.11,16560,13.25,73778.0,-2.59,-33.15,-33.31,0,*5C
1491098618.34,16561,13.25,73774.5,-2.59,-33.15,-33.21,0,*5C
1491098619.61,16562,13.25,73774.0,-2.59,-33.37,-33.43,0,*5B
1491098620.84,16563,13.25,73774.8,-2.59,-33.21,-33.55,0,*5A
1491098622.1,16564,13.25,73768.8,-2.59,-32.85,-33.03,0,*51
1491098623.35,16565,13.25,73766.5,-2.57,-32.63,-32.63,0,*51
1491098624.59,16566,13.25,73768.0,-2.59,-32.69,-32.69,0,*5C
1491098625.85,16567,13.25,73766.8,-2.57,-32.63,-32.79,0,*58
1491098627.08,16568,13.25,73768.8,-2.57,-32.79,-32.91,0,*5A
1491098628.32,16569,13.25,73770.0,-2.57,-32.79,-32.91,0,*5B
1491098629.58,16570,13.25,73768.3,-2.57,-33.09,-33.09,0,*55
1491098630.83,16571,13.25,73770.8,-2.59,-32.97,-33.15,0,*51
1491098632.09,16572,13.25,73768.5,-2.57,-32.79,-32.79,0,*57
1491098633.37,16573,13.25,73768.3,-2.59,-32.85,-32.97,0,*5B
1491098634.64,16574,13.25,73764.3,-2.59,-32.69,-32.79,0,*5E
1491098635.85,16575,13.25,73764.8,-2.57,-32.39,-32.39,0,*50
1491098637.1,16576,13.25,73766.3,-2.57,-31.91,-31.91,0,*53
1491098638.35,16577,13.25,73762.3,-2.57,-31.91,-31.91,0,*52
1491098639.58,16578,13.25,73754.5,-2.55,-31.79,-31.67,0,*50
1491098640.84,16579,13.25,73752.8,-2.55,-31.67,-31.61,0,*58
1491098642.04,16580,13.25,73748.5,-2.53,-31.67,-31.67,0,*5E
1491098643.24,16581,13.25,73742.8,-2.53,-31.67,-31.79,0,*50
1491098644.51,16582,13.25,73748.5,-2.51,-32.29,-32.29,0,*5E
1491098645.77,16583,13.25,73752.0,-2.51,-31.73,-31.79,0,*55
1491098647.0,16584,13.25,73762.0,-2.51,-31.79,-31.79,0,*58
1491098648.2,16585,13.25,73760.0,-2.49,-31.79,-31.79,0,*50
1491098649.43,16586,13.25,73756.3,-2.49,-31.73,-31.79,0,*59
1491098650.66,16587,13.25,73754.8,-2.49,-31.79,-31.91,0,*54
1491098651.9,16588,13.25,73752.3,-2.45,-32.07,-32.13,0,*54
1491098653.15,16589,13.25,73748.5,-2.45,-31.91,-31.91,0,*50
1491098654.39,16590,13.25,73748.8,-2.43,-31.67,-31.85,0,*52
1491098655.64,16591,13.25,73744.0,-2.45,-31.91,-31.91,0,*59
1491098656.88,16592,13.25,73754.8,-2.43,-32.39,-32.45,0,*57
1491098658.12,16593,13.25,73758.0,-2.43,-32.57,-32.75,0,*5D
1491098659.38,16594,13.25,73762.0,-2.43,-32.63,-32.63,0,*5A
1491098660.59,16595,13.25,73758.3,-2.43,-32.57,-32.57,0,*5B
1491098661.85,16596,13.25,73760.8,-2.45,-32.75,-33.09,0,*54
1491098663.08,16597,13.25,73756.0,-2.45,-32.91,-33.09,0,*5F
1491098664.31,16598,13.25,73756.8,-2.43,-32.91,-32.97,0,*50
1491098665.58,16599,13.25,73758.0,-2.43,-32.75,-32.79,0,*5B
1491098666.83,16600,13.25,73754.0,-2.45,-32.79,-32.97,0,*52
1491098668.09,16601,13.25,73758.5,-2.43,-32.63,-32.63,0,*55
1491098669.35,16602,13.25,73754.3,-2.43,-32.75,-32.97,0,*5A
1491098670.59,16603,13.25,73752.8,-2.43,-32.97,-33.21,0,*5B
1491098671.83,16604,13.25,73752.0,-2.43,-32.79,-32.91,0,*56
1491098673.06,16605,13.25,73752.3,-2.43,-32.63,-32.57,0,*56
1491098674.3,16606,13.25,73750.0,-2.43,-32.45,-32.39,0,*59
1491098675.55,16607,13.25,73752.5,-2.45,-32.45,-32.45,0,*55
1491098676.78,16608,13.25,73750.3,-2.45,-32.57,-32.63,0,*5D
1491098678.02,16609,13.25,73752.0,-2.43,-32.79,-32.91,0,*5B
1491098679.28,16610,13.25,73752.5,-2.41,-32.85,-33.15,0,*5F
1491098680.55,16611,13.25,73758.0,-2.41,-32.85,-33.03,0,*59
1491098681.83,16612,13.25,73754.0,-2.41,-33.09,-33.27,0,*59
1491098683.07,16613,13.25,73754.5,-2.43,-33.21,-33.31,0,*57
1491098684.33,16614,13.25,73750.0,-2.43,-32.79,-32.97,0,*51
1491098685.59,16615,13.25,73756.0,-2.45,-32.75,-32.97,0,*5A
1491098686.82,16616,13.25,73746.3,-2.43,-32.91,-33.09,0,*53
1491098688.08,16617,13.25,73750.5,-2.45,-33.09,-33.31,0,*5F
1491098689.32,16618,13.25,73756.0,-2.43,-32.91,-33.31,0,*56
1491098690.57,16619,13.25,73754.0,-2.43,-32.97,-33.09,0,*5A
1491098691.81,16620,13.25,73758.3,-2.43,-32.97,-33.21,0,*5A
1491098693.07,16621,13.25,73754.8,-2.43,-32.79,-33.09,0,*51
1491098694.33,16622,13.25,73754.0,-2.45,-32.75,-32.97,0,*5E
1491098695.59,16623,13.25,73750.5,-2.43,-32.79,-33.09,0,*53
1491098696.85,16624,13.25,73756.5,-2.45,-32.97,-33.09,0,*52
1491098698.09,16625,13.25,73756.5,-2.43,-32.79,-32.91,0,*55
1491098699.35,16626,13.25,73752.8,-2.45,-32.63,-32.75,0,*51
1491098700.58,16627,13.25,73748.5,-2.43,-32.45,-32.57,0,*52
1491098701.81,16628,13.25,73744.3,-2.45,-32.23,-32.29,0,*52
1491098703.04,16629,13.25,73748.0,-2.43,-32.07,-32.23,0,*59
1491098704.28,16630,13.25,73758.5,-2.43,-32.39,-32.63,0,*58
1491098705.52,16631,13.25,73752.5,-2.43,-32.57,-32.63,0,*51
1491098706.78,16632,13.25,73756.3,-2.43,-32.63,-32.79,0,*5E
1491098708.02,16633,13.25,73752.5,-2.41,-32.39,-32.51,0,*58
1491098709.26,16634,13.25,73758.5,-2.41,-32.57,-32.69,0,*5C
1491098710.51,16635,13.25,73752.0,-2.39,-32.57,-32.75,0,*5F
1491098711.77,16636,13.25,73752.5,-2.41,-32.51,-32.75,0,*55
1491098713.04,16637,13.25,73756.0,-2.41,-32.75,-32.91,0,*58
1491098714.3,16638,13.25,73748.8,-2.41,-32.57,-32.75,0,*5D
1491098715.56,16639,13.25,73760.5,-2.41,-32.75,-33.15,0,*5B
1491098716.85,16640,13.25,73752.5,-2.41,-33.09,-33.27,0,*5E
1491098718.14,16641,13.25,73750.3,-2.41,-33.27,-33.43,0,*51
1491098719.4,16642,13.25,73750.5,-2.43,-33.09,-33.31,0,*59
1491098720.63,16643,13.25,73752.0,-2.41,-32.91,-33.15,0,*5C
1491098721.89,16644,13.25,73750.8,-2.41,-32.85,-33.15,0,*5E
1491098723.16,16645,13.25,73750.8,-2.41,-32.69,-32.85,0,*55
1491098724.42,16646,13.25,73752.3,-2.41,-33.09,-33.15,0,*59
1491098725.63,16647,13.25,73758.0,-2.43,-33.15,-33.37,0,*57
1491098726.87,16648,13.25,73754.3,-2.43,-32.79,-32.91,0,*5E
1491098728.11,16649,13.25,73756.8,-2.43,-32.79,-33.21,0,*55
1491098729.37,16650,13.25,73760.3,-2.41,-32.75,-33.03,0,*53
1491098730.64,16651,13.25,73766.3,-2.43,-32.63,-32.75,0,*57
1491098731.87,16652,13.25,73754.3,-2.43,-32.29,-32.39,0,*52
1491098733.11,16653,13.25,73742.5,-2.41,-31.79,-32.01,0,*5C
1491098734.37,16654,13.25,73742.3,-2.41,-32.19,-32.35,0,*59
1491098735.6,16655,13.25,73746.5,-2.41,-32.35,-32.51,0,*54
1491098736.84,16656,13.25,73738.8,-2.39,-32.07,-32.35,0,*5B
1491098738.08,16657,13.25,73736.8,-2.39,-32.19,-32.35,0,*55
1491098739.3,16658,13.25,73740.8,-2.39,-32.23,-32.51,0,*51
1491098740.52,16659,13.25,73744.3,-2.41,-32.23,-32.57,0,*59
1491098741.73,16660,13.25,73742.8,-2.39,-32.35,-32.51,0,*5D
1491098742.95,16661,13.25,73746.5,-2.39,-32.35,-32.51,0,*5C
1491098744.17,16662,13.25,73748.3,-2.39,-32.51,-32.69,0,*56
1491098745.41,16663,13.25,73748.8,-2.39,-32.75,-33.03,0,*5C
1491098746.63,16664,13.25,73748.3,-2.39,-32.69,-32.91,0,*5C
1491098747.85,16665,13.25,73740.0,-2.39,-32.57,-32.91,0,*50
1491098749.09,16666,13.25,73736.8,-2.39,-32.85,-33.15,0,*51
1491098750.33,16667,13.25,73746.8,-2.39,-32.85,-33.15,0,*50
1491098751.57,16668,13.25,73752.5,-2.39,-32.75,-32.91,0,*5D
1491098752.78,16669,13.25,73746.3,-2.39,-32.57,-32.57,0,*56
1491098753.99,16670,13.25,73750.0,-2.39,-32.51,-32.57,0,*58
1491098755.23,16671,13.25,73740.3,-2.41,-32.51,-32.51,0,*50
1491098756.48,16672,13.25,73738.0,-2.39,-32.69,-32.85,0,*5E
1491098757.72,16673,13.25,73746.8,-2.39,-32.85,-33.15,0,*55
1491098758.97,16674,13.25,73738.5,-2.39,-32.69,-32.85,0,*58
1491098760.2,16675,13.25,73740.0,-2.41,-32.51,-32.69,0,*5F
1491098761.41,16676,13.25,73742.8,-2.39,-32.39,-32.57,0,*50
1491098762.62,16677,13.25,73736.5,-2.39,-32.23,-32.35,0,*5E
1491098763.83,16678,13.25,73732.8,-2.39,-32.23,-32.35,0,*51
1491098765.07,16679,13.25,73732.0,-2.41,-32.23,-32.51,0,*5D
1491098766.28,16680,13.25,73736.3,-2.39,-32.23,-32.35,0,*56
1491098767.49,16681,13.25,73736.8,-2.39,-32.35,-32.39,0,*5C
1491098768.7,16682,13.25,73744.8,-2.39,-32.23,-32.39,0,*58
1491098769.94,16683,13.25,73746.0,-2.41,-32.51,-32.51,0,*5D
1491098771.16,16684,13.25,73750.5,-2.39,-32.35,-32.51,0,*57
1491098772.44,16685,13.25,73750.8,-2.37,-32.45,-32.79,0,*55
1491098773.66,16686,13.25,73754.3,-2.39,-32.51,-32.69,0,*5C
1491098774.88,16687,13.25,73754.5,-2.39,-32.51,-32.69,0,*5D
1491098776.09,16688,13.25,73754.5,-2.39,-32.35,-32.51,0,*5B
1491098777.3,16689,13.25,73754.8,-2.39,-32.51,-32.57,0,*5E
1491098778.52,16690,13.25,73752.8,-2.39,-32.35,-32.51,0,*52
1491098779.73,16691,13.25,73756.3,-2.39,-32.35,-32.51,0,*53
1491098780.94,16692,13.25,73756.8,-2.39,-32.39,-32.57,0,*5A
1491098782.18,16693,13.25,73756.3,-2.39,-32.51,-32.75,0,*55
1491098783.43,16694,13.25,73758.0,-2.39,-32.51,-32.85,0,*5D
1491098784.7,16695,13.25,73758.5,-2.39,-32.75,-32.85,0,*5A
1491098785.94,16696,13.25,73752.0,-2.39,-32.57,-32.85,0,*59
1491098787.19,16697,13.25,73752.5,-2.39,-32.57,-32.75,0,*57
1491098788.43,16698,13.25,73756.3,-2.41,-32.57,-32.69,0,*5A
1491098789.67,16699,13.25,73754.5,-2.39,-32.51,-32.85,0,*50
1491098790.91,16700,13.25,73758.5,-2.39,-32.51,-32.75,0,*5E
1491098792.14,16701,13.25,73754.3,-2.39,-32.69,-32.91,0,*5E
1491098793.38,16702,13.25,73754.8,-2.39,-32.85,-33.03,0,*55
1491098794.62,16703,13.25,73756.8,-2.39,-32.57,-32.75,0,*5B
1491098795.84,16704,13.25,73750.5,-2.39,-32.69,-33.03,0,*51
1491098797.09,16705,13.25,73750.3,-2.39,-32.57,-32.75,0,*5D
1491098798.35,16706,13.25,73750.0,-2.41,-32.57,-32.85,0,*5E
1491098799.62,16707,13.25,73744.8,-2.41,-32.57,-32.85,0,*5F
1491098800.84,16708,13.25,73750.8,-2.39,-32.69,-32.91,0,*57
1491098802.1,16709,13.25,73744.5,-2.41,-32.57,-32.85,0,*51
1491098803.37,16710,13.25,73748.0,-2.41,-32.57,-32.85,0,*59
1491098804.63,16711,13.25,73746.5,-2.41,-32.57,-32.85,0,*58
1491098805.9,16712,13.25,73744.5,-2.41,-32.75,-32.91,0,*5E
1491098807.14,16713,13.25,73744.8,-2.39,-32.75,-33.15,0,*5D
1491098808.38,16714,13.25,73740.3,-2.39,-32.75,-33.03,0,*5D
1491098809.62,16715,13.25,73742.8,-2.39,-32.75,-33.15,0,*5B
1491098810.85,16716,13.25,73742.0,-2.41,-32.91,-33.15,0,*5D
1491098812.09,16717,13.25,73742.8,-2.41,-32.69,-32.91,0,*56
1491098813.36,16718,13.25,73744.5,-2.41,-32.57,-32.75,0,*5E
1491098814.62,16719,13.25,73750.0,-2.41,-32.51,-32.85,0,*56
1491098815.88,16720,13.25,73744.0,-2.41,-32.57,-32.85,0,*5A
1491098817.13,16721,13.25,73744.5,-2.39,-32.57,-32.85,0,*54
1491098818.37,16722,13.25,73740.0,-2.41,-32.57,-32.91,0,*5D
1491098819.61,16723,13.25,73744.5,-2.41,-32.69,-33.15,0,*5C
1491098820.85,16724,13.25,73746.3,-2.39,-32.85,-33.03,0,*51
1491098822.06,16725,13.25,73750.5,-2.39,-32.69,-33.15,0,*55
1491098823.3,16726,13.25,73744.8,-2.39,-32.85,-33.15,0,*54
1491098824.57,16727,13.25,73748.5,-2.41,-32.75,-33.15,0,*55
1491098825.83,16728,13.25,73746.5,-2.41,-32.57,-32.85,0,*52
1491098827.09,16729,13.25,73744.3,-2.41,-32.57,-32.85,0,*53
1491098828.34,16730,13.25,73742.0,-2.41,-32.69,-32.91,0,*53
1491098829.57,16731,13.25,73736.8,-2.41,-32.57,-32.91,0,*5F
1491098830.81,16732,13.25,73738.8,-2.39,-32.75,-33.03,0,*59
1491098832.06,16733,13.25,73730.5,-2.39,-32.75,-33.15,0,*5F
1491098833.32,16734,13.25,73728.8,-2.41,-32.85,-33.15,0,*58
1491098834.58,16735,13.25,73728.5,-2.41,-32.75,-33.03,0,*51
1491098835.82,16736,13.25,73718.5,-2.41,-32.57,-32.91,0,*58
1491098837.05,16737,13.25,73714.5,-2.41,-32.57,-33.03,0,*53
1491098838.34,16738,13.25,73732.3,-2.41,-32.75,-32.85,0,*53
1491098839.6,16739,13.25,73740.5,-2.41,-32.85,-33.15,0,*55
1491098840.87,16740,13.25,73736.8,-2.39,-33.09,-33.43,0,*52
1491098842.13,16741,13.25,73740.3,-2.41,-33.15,-33.49,0,*5B
1491098843.34,16742,13.25,73736.3,-2.43,-33.15,-33.37,0,*53
1491098844.57,16743,13.25,73736.3,-2.45,-33.09,-33.55,0,*5D
1491098845.83,16744,13.25,73738.3,-2.43,-33.09,-33.49,0,*51
1491098847.04,16745,13.25,73736.3,-2.43,-33.21,-33.55,0,*57
1491098848.3,16746,13.25,73738.5,-2.45,-33.09,-33.49,0,*55
1491098849.53,16747,13.25,73742.5,-2.43,-32.79,-33.21,0,*5A
1491098850.77,16748,13.25,73746.0,-2.43,-32.91,-33.31,0,*52
1491098852.0,16749,13.25,73750.3,-2.43,-33.21,-33.49,0,*56
1491098853.26,16750,13.25,73746.5,-2.43,-32.97,-33.31,0,*5D
1491098854.5,16751,13.25,73744.3,-2.43,-32.91,-33.31,0,*5A
1491098855.73,16752,13.25,73744.3,-2.45,-32.97,-33.21,0,*58
1491098856.96,16753,13.25,73746.3,-2.43,-32.97,-33.21,0,*5F
1491098858.19,16754,13.25,73744.5,-2.45,-32.97,-33.37,0,*59
1491098859.45,16755,13.25,73746.3,-2.45,-33.09,-33.49,0,*57
1491098860.68,16756,13.25,73748.0,-2.45,-33.09,-33.37,0,*5D
1491098861.91,16757,13.25,73748.0,-2.45,-33.09,-33.55,0,*58
1491098863.17,16758,13.25,73750.8,-2.45,-32.97,-33.31,0,*53
1491098864.37,16759,13.25,73748.0,-2.45,-33.15,-33.37,0,*5F
1491098865.58,16760,13.25,73748.0,-2.45,-33.15,-33.37,0,*55
1491098866.79,16761,13.25,73754.5,-2.45,-33.15,-33.37,0,*54
1491098868.02,16762,13.25,73754.5,-2.45,-33.15,-33.31,0,*51
1491098869.25,16763,13.25,73756.3,-2.45,-32.79,-33.21,0,*5A
1491098870.49,16764,13.25,73758.8,-2.45,-33.09,-33.37,0,*5C
1491098871.69,16765,13.25,73756.0,-2.45,-33.21,-33.55,0,*53
1491098872.93,16766,13.25,73760.0,-2.45,-33.09,-33.37,0,*5E
1491098874.14,16767,13.25,73760.5,-2.45,-33.21,-33.67,0,*50
1491098875.36,16768,13.25,73762.3,-2.49,-33.27,-33.55,0,*54
1491098876.56,16769,13.25,73760.8,-2.49,-33.15,-33.37,0,*50
1491098877.82,16770,13.25,73764.5,-2.49,-32.85,-33.27,0,*51
1491098879.05,16771,13.25,73760.5,-2.49,-32.79,-33.03,0,*55
1491098880.26,16772,13.25,73766.8,-2.49,-32.69,-33.03,0,*57
1491098881.49,16773,13.25,73770.8,-2.49,-32.79,-33.03,0,*57
1491098882.73,16774,13.25,73764.0,-2.45,-32.79,-32.91,0,*56
1491098883.96,16775,13.25,73764.0,-2.45,-32.57,-32.63,0,*56
1491098885.17,16776,13.25,73760.3,-2.45,-32.13,-32.39,0,*5A
1491098886.38,16777,13.25,73762.8,-2.45,-32.39,-32.39,0,*53
1491098887.61,16778,13.25,73760.5,-2.43,-32.29,-32.57,0,*53
1491098888.85,16779,13.25,73758.5,-2.43,-32.57,-32.75,0,*5B
1491098890.11,16780,13.25,73760.5,-2.43,-32.45,-32.45,0,*5D
1491098891.35,16781,13.25,73756.3,-2.43,-32.57,-32.75,0,*5C
1491098892.61,16782,13.25,73752.3,-2.43,-32.45,-32.45,0,*5F
1491098893.85,16783,13.25,73752.8,-2.43,-32.57,-32.63,0,*59
1491098895.08,16784,13.25,73750.5,-2.43,-32.45,-32.57,0,*5A
1491098896.34,16785,13.25,73750.0,-2.41,-32.51,-32.85,0,*53